Terminal Aerodrome Forecast
Issued by NWS

Home | Current Version | Previous Version | Text Only | Print | Product List | Glossary Off
Versions: 1 2 3 4 5 6 7 8 9 10 11 12 13 14 15 16 17 18 19 20 21 22 23 24 25 26 27

000
FTUS45 KGGW 130500
TAFGDV
TAF
KGDV 130520Z 1306/1406 17005KT P6SM SCT200
     FM131500 31010KT P6SM FEW100
     FM131800 31013KT P6SM BKN045
     FM140300 32007KT P6SM BKN060
      AMD LTD TO CLD VIS AND WIND=

USA.gov is the U.S. government's official web portal to all federal, state and local government web resources and services.